Find Starlink 35184

NORAD ID: 65506 Int'l Des: 2025-198 Owner: SPXS Country: US Constellation: starlink operational
LEOCIRCULAR

現在のビュー

3D地球を読み込み中...

About Starlink 35184

Starlink 35184 (NORAD 65506) is a starlink constellation satellite (v2 mini) launched Sep 5, 2025 by SPXS of US. It operates in LEO, CIRCULAR orbit with a mass of 575.00 kg.

Starlink 35184について

説明を読み込み中...

次回通過

Passes for default location (London). Set your location on the main map for personalized predictions.

高度履歴

Loading altitude history...

軌道要素

1 65506U 25198Q 26194.88383551 .00008007 00000-0 24784-3 0 9993
2 65506 53.1600 42.5178 0001388 107.2436 252.8718 15.34402569 47978
Epoch: Jul 13, 2026 • Age: 12 hours

現在のステータス

高度 479.0 km
遠地点 / 近地点 N/A
速度 7.63 km/s
衛星直下点 -46.03°S, 159.7°W
打ち上げ日 Sep 5, 2025
運用期間 0.8 years
タイプ internet

技術仕様

分類 Payload
質量 575.00 kg
乾燥質量 530.00 kg
総質量 575.00 kg
長さ 0.30 m
直径 4.10 m
スパン 29.00 m
形状 Box + pan
製造者 SPXS
バスタイプ Starlink V2MO
フェーズステータス In Orbit
所有者/国 SPXS/US

Most Searched